Regional Weather Roundup
Issued by NWS

Home | Current Version | Previous Version | Text Only | Print | Product List | Glossary Off
Versions: 1 2 3 4 5 6 7 8 9 10 11 12 13 14 15 16 17 18 19 20 21 22 23 24 25 26 27 28 29 30 31 32 33 34 35 36 37 38 39 40 41 42 43 44 45 46 47 48 49 50

497
ASUS43 KLMK 120502
RWRKY
KENTUCKY REGIONAL WEATHER ROUNDUP
NATIONAL WEATHER SERVICE LOUISVILLE KY
1200 AM EST FRI FEB 12 2016

NOTE "FAIR" INDICATES FEW OR NO CLOUDS BELOW 12,000 FEET
WITH NO SIGNIFICANT WEATHER AND/OR OBSTRUCTIONS TO VISIBILITY.

KYZ001>023-026-027-061>063-070>075-120600-
WESTERN AND SOUTH CENTRAL KENTUCKY

CITY           SKY/WX    TMP DP  RH WIND       PRES   REMARKS
PADUCAH        CLOUDY    31  19  61 E6        30.24F WCI  25
HENDERSON      CLOUDY    28  14  54 CALM      30.27F
OWENSBORO      CLOUDY    28  14  55 CALM      30.30R
HOPKINSVILLE   CLOUDY    30  19  62 NE7       30.24S WCI  23
BOWLING GREEN  MOCLDY    32  17  54 NE3       30.26F
GLASGOW        NOT AVBL
$$

KYZ024-025-028>034-038-045-046-053-120600-
NORTH CENTRAL KENTUCKY

CITY           SKY/WX    TMP DP  RH WIND       PRES   REMARKS
LOUISVILLE/SDF CLOUDY    27   7  42 E3        30.29S
LOUISVILLE/LOU CLOUDY    26   8  46 NE5       30.29S WCI  20
FORT KNOX      CLOUDY    27  10  50 NE5       30.25S WCI  21
$$

KYZ035>037-039>044-047>052-055>060-089>105-120600-
NORTHEAST KENTUCKY

CITY           SKY/WX    TMP DP  RH WIND       PRES   REMARKS
LEXINGTON      CLOUDY    23  12  62 E5        30.25F WCI  17
COVINGTON      CLOUDY    20   8  60 E5        30.27F WCI  13
FRANKFORT      CLOUDY    23  10  57 E5        30.26F WCI  17
$$

KYZ054-064>069-076>088-106>120-120600-
SOUTHEAST KENTUCKY

CITY           SKY/WX    TMP DP  RH WIND       PRES   REMARKS
JACKSON        CLOUDY    23   7  50 CALM      30.23F
LONDON         CLOUDY    26  10  50 VRB3      30.23F
SOMERSET       NOT AVBL
MIDDLESBORO    NOT AVBL
MONTICELLO     CLOUDY    28  17  63 VRB6      30.24F WCI  22
$$





USA.gov is the U.S. government's official web portal to all federal, state and local government web resources and services.